Photometre #253[Standard_N] Modena AOT

File : 20210607_253.hum

07/06/2021,04:30:26,TEMP=18.6,BA=5.08,STAT.A
07/06/2021,04:34:21,TEMP=18.8,BA=5.08,STAT.A
07/06/2021,04:38:53,TEMP=19.0,BA=5.08,STAT.A
07/06/2021,04:44:14,TEMP=19.3,BA=5.12,STAT.A
07/06/2021,04:50:37,TEMP=19.5,BA=5.12,STAT.A
07/06/2021,04:58:23,TEMP=19.6,BA=5.12,STAT.A
07/06/2021,05:08:06,TEMP=20.2,BA=5.08,STAT.B
07/06/2021,05:15:24,TEMP=20.7,BA=5.12,STAT.A
07/06/2021,05:17:47,TEMP=20.8,BA=5.12,STAT.A
07/06/2021,05:23:30,TEMP=21.0,BA=5.12,STAT.A
07/06/2021,05:29:56,TEMP=21.1,BA=5.12,STAT.A
07/06/2021,05:37:12,TEMP=21.3,BA=5.16,STAT.C
07/06/2021,05:48:23,TEMP=21.8,BA=5.16,STAT.A
07/06/2021,05:55:16,TEMP=22.0,BA=5.16,STAT.A
07/06/2021,06:06:41,TEMP=22.6,BA=5.20,STAT.A
07/06/2021,06:20:20,TEMP=23.0,BA=5.20,STAT.A
07/06/2021,06:37:03,TEMP=23.1,BA=5.20,STAT.B
07/06/2021,07:10:57,TEMP=25.3,BA=5.24,STAT.B
07/06/2021,07:18:17,TEMP=25.5,BA=5.24,STAT.E
07/06/2021,07:30:18,TEMP=25.5,BA=5.24,STAT.D
07/06/2021,07:45:17,TEMP=25.3,BA=5.24,STAT.D
07/06/2021,08:00:18,TEMP=24.8,BA=5.28,STAT.D
07/06/2021,08:15:16,TEMP=25.1,BA=5.28,STAT.E
07/06/2021,08:30:17,TEMP=25.4,BA=5.32,STAT.D
07/06/2021,08:30:48,TEMP=25.4,BA=5.32,STAT.s
07/06/2021,08:45:17,TEMP=27.3,BA=5.32,STAT.D
07/06/2021,08:45:49,TEMP=27.3,BA=5.32,STAT.s
07/06/2021,09:00:16,TEMP=27.0,BA=5.28,STAT.D
07/06/2021,09:15:16,TEMP=25.5,BA=5.28,STAT.F
07/06/2021,09:30:17,TEMP=25.1,BA=5.32,STAT.D
07/06/2021,09:45:17,TEMP=25.0,BA=5.32,STAT.D
07/06/2021,10:00:17,TEMP=25.2,BA=5.32,STAT.D
07/06/2021,10:15:17,TEMP=26.2,BA=5.36,STAT.F
07/06/2021,10:30:18,TEMP=27.0,BA=5.36,STAT.D
07/06/2021,10:30:50,TEMP=27.0,BA=5.36,STAT.s
07/06/2021,10:45:20,TEMP=27.7,BA=5.36,STAT.D
07/06/2021,11:00:21,TEMP=27.4,BA=5.36,STAT.D
07/06/2021,11:15:18,TEMP=28.3,BA=5.44,STAT.E
07/06/2021,11:15:50,TEMP=28.3,BA=5.44,STAT.s
07/06/2021,11:30:18,TEMP=29.9,BA=5.40,STAT.D
07/06/2021,11:30:50,TEMP=29.9,BA=5.40,STAT.s
07/06/2021,11:45:17,TEMP=30.6,BA=5.36,STAT.D
07/06/2021,12:00:17,TEMP=28.9,BA=5.36,STAT.D
07/06/2021,12:15:17,TEMP=27.7,BA=5.36,STAT.F
07/06/2021,12:30:17,TEMP=27.2,BA=5.36,STAT.D
07/06/2021,12:45:17,TEMP=27.7,BA=5.36,STAT.D
07/06/2021,13:00:17,TEMP=28.5,BA=5.36,STAT.D
07/06/2021,13:01:25,TEMP=28.5,BA=5.36,STAT.s
07/06/2021,13:15:17,TEMP=28.2,BA=5.36,STAT.F
07/06/2021,13:16:35,TEMP=28.1,BA=5.36,STAT.s
07/06/2021,13:30:17,TEMP=28.9,BA=5.40,STAT.D
07/06/2021,13:30:48,TEMP=28.9,BA=5.40,STAT.s
07/06/2021,13:45:16,TEMP=30.2,BA=5.36,STAT.D
07/06/2021,14:00:16,TEMP=28.0,BA=5.36,STAT.D
07/06/2021,14:15:16,TEMP=27.0,BA=5.36,STAT.E
07/06/2021,14:30:16,TEMP=26.6,BA=5.36,STAT.D
07/06/2021,14:45:16,TEMP=26.5,BA=5.36,STAT.D
07/06/2021,15:00:19,TEMP=27.0,BA=5.36,STAT.D
07/06/2021,15:00:50,TEMP=27.0,BA=5.36,STAT.s
07/06/2021,15:15:16,TEMP=28.0,BA=5.40,STAT.E
07/06/2021,15:16:33,TEMP=28.2,BA=5.40,STAT.s
07/06/2021,15:19:37,TEMP=28.6,BA=5.40,STAT.B
07/06/2021,15:19:57,TEMP=28.6,BA=5.40,STAT.s
07/06/2021,15:53:30,TEMP=23.4,BA=5.24,STAT.B
07/06/2021,16:10:13,TEMP=22.4,BA=5.24,STAT.A
07/06/2021,16:19:58,TEMP=22.4,BA=5.24,STAT.h
07/06/2021,16:23:36,TEMP=22.4,BA=5.24,STAT.h
07/06/2021,16:35:10,TEMP=22.4,BA=5.20,STAT.h
07/06/2021,16:44:42,TEMP=22.4,BA=5.16,STAT.h
07/06/2021,16:53:04,TEMP=22.4,BA=5.16,STAT.h
07/06/2021,17:00:21,TEMP=22.4,BA=5.16,STAT.h
07/06/2021,17:06:47,TEMP=22.4,BA=5.16,STAT.h
07/06/2021,17:12:29,TEMP=22.4,BA=5.16,STAT.h
07/06/2021,17:17:45,TEMP=22.4,BA=5.16,STAT.h
07/06/2021,17:22:19,TEMP=22.4,BA=5.12,STAT.h
07/06/2021,17:31:53,TEMP=22.4,BA=5.12,STAT.h
07/06/2021,17:39:50,TEMP=22.4,BA=5.12,STAT.h
07/06/2021,17:46:03,TEMP=22.4,BA=5.12,STAT.h
07/06/2021,17:51:24,TEMP=22.4,BA=5.12,STAT.h
07/06/2021,17:55:56,TEMP=22.4,BA=5.12,STAT.h
07/06/2021,17:59:51,TEMP=22.4,BA=5.12,STAT.h